Location: Six Mile Lake
(44.9000°N, 79.7170°W)
Time: 20:32:28
(UTC-04:00)

NOAA 18 - Pass Details

Date: 30 June 2022
Orbit: 839 x 860 km, 98.9° (Epoch: 15 August)

Event Time Altitude Azimuth Distance (km) Brightness Sun altitude
Exits shadow 00:08:54 12° 223° (SW) 2,335 7.2 -19.9°
Maximum altitude 00:12:32 22° 268° (W) 1,802 7.1 -20.1°
Drops below altitude 10° 00:16:43 10° 317° (NW) 2,497 8.6 -20.3°
Sets 00:19:41 0° 333° (NNW) 3,442 9.8 -20.4°
